Time,TemperatureF,DewpointF,PressureIn,WindDirection,WindDirectionDegrees,WindSpeedMPH,WindSpeedGustMPH,Humidity,HourlyPrecipIn,Conditions,Clouds,dailyrainin,SoftwareType,DateUTC
2013-03-04 00:12:00,11.2,9.0,30.04,WNW,300,2.0,6.0,92,0.00,,,0.00,weatherlink.com 1.10,2013-03-04 05:12:00,
2013-03-04 00:27:00,10.7,9.0,30.04,WNW,285,1.0,6.0,91,0.00,,,0.00,weatherlink.com 1.10,2013-03-04 05:27:00,
2013-03-04 00:58:00,10.4,8.0,30.05,WSW,257,4.0,5.0,91,0.00,,,0.00,weatherlink.com 1.10,2013-03-04 05:58:00,
2013-03-04 01:13:00,10.3,8.0,30.05,WSW,246,2.0,5.0,91,0.00,,,0.00,weatherlink.com 1.10,2013-03-04 06:13:00,
2013-03-04 01:28:00,10.3,8.0,30.06,West,277,3.0,6.0,91,0.00,,,0.00,weatherlink.com 1.10,2013-03-04 06:28:00,
2013-03-04 01:43:00,10.3,8.0,30.07,NW,304,2.0,7.0,91,0.00,,,0.00,weatherlink.com 1.10,2013-03-04 06:43:00,
2013-03-04 01:58:00,10.4,8.0,30.07,NW,323,2.0,6.0,91,0.00,,,0.00,weatherlink.com 1.10,2013-03-04 06:58:00,
2013-03-04 02:13:00,10.4,9.0,30.06,WSW,247,1.0,6.0,92,0.00,,,0.00,weatherlink.com 1.10,2013-03-04 07:13:00,
2013-03-04 02:28:00,10.4,9.0,30.06,WNW,286,3.0,5.0,92,0.00,,,0.00,weatherlink.com 1.10,2013-03-04 07:28:00,
2013-03-04 02:43:00,10.5,8.0,30.06,West,274,3.0,5.0,91,0.00,,,0.00,weatherlink.com 1.10,2013-03-04 07:43:00,
2013-03-04 02:58:00,10.5,9.0,30.06,West,266,1.0,7.0,92,0.00,,,0.00,weatherlink.com 1.10,2013-03-04 07:58:00,
2013-03-04 03:13:00,10.5,9.0,30.06,WNW,295,2.0,5.0,92,0.00,,,0.00,weatherlink.com 1.10,2013-03-04 08:13:00,
2013-03-04 03:28:00,10.6,9.0,30.05,WSW,258,1.0,6.0,92,0.00,,,0.00,weatherlink.com 1.10,2013-03-04 08:28:00,
2013-03-04 03:43:00,10.7,9.0,30.05,WNW,296,4.0,7.0,92,0.00,,,0.00,weatherlink.com 1.10,2013-03-04 08:43:00,
2013-03-04 03:58:00,10.7,9.0,30.07,SSE,159,3.0,6.0,92,0.00,,,0.00,weatherlink.com 1.10,2013-03-04 08:58:00,
2013-03-04 04:13:00,10.6,9.0,30.07,NW,321,4.0,6.0,92,0.00,,,0.00,weatherlink.com 1.10,2013-03-04 09:13:00,
2013-03-04 04:28:00,10.7,9.0,30.07,WSW,240,4.0,9.0,92,0.00,,,0.00,weatherlink.com 1.10,2013-03-04 09:28:00,
2013-03-04 04:43:00,10.7,9.0,30.07,NW,313,3.0,5.0,91,0.00,,,0.00,weatherlink.com 1.10,2013-03-04 09:43:00,
2013-03-04 04:58:00,10.8,9.0,30.07,NW,315,3.0,7.0,91,0.00,,,0.00,weatherlink.com 1.10,2013-03-04 09:58:00,
2013-03-04 05:13:00,10.8,9.0,30.08,WSW,256,1.0,5.0,91,0.00,,,0.00,weatherlink.com 1.10,2013-03-04 10:13:00,
2013-03-04 05:28:00,10.8,9.0,30.08,NNW,338,3.0,5.0,92,0.00,,,0.00,weatherlink.com 1.10,2013-03-04 10:28:00,
2013-03-04 05:43:00,10.8,9.0,30.09,NW,309,3.0,7.0,91,0.00,,,0.00,weatherlink.com 1.10,2013-03-04 10:43:00,
2013-03-04 05:58:00,10.8,9.0,30.09,WNW,286,3.0,4.0,92,0.00,,,0.00,weatherlink.com 1.10,2013-03-04 10:58:00,
2013-03-04 06:13:00,10.9,9.0,30.09,South,175,0.0,4.0,92,0.00,,,0.00,weatherlink.com 1.10,2013-03-04 11:13:00,
2013-03-04 06:28:00,10.9,9.0,30.09,West,259,5.0,6.0,91,0.00,,,0.00,weatherlink.com 1.10,2013-03-04 11:28:00,
2013-03-04 06:43:00,10.9,9.0,30.09,NW,321,1.0,8.0,92,0.00,,,0.00,weatherlink.com 1.10,2013-03-04 11:43:00,
2013-03-04 06:58:00,11.1,9.0,30.11,WNW,288,2.0,5.0,92,0.00,,,0.00,weatherlink.com 1.10,2013-03-04 11:58:00,
2013-03-04 07:13:00,11.2,9.0,30.11,WSW,238,2.0,10.0,92,0.00,,,0.00,weatherlink.com 1.10,2013-03-04 12:13:00,
2013-03-04 07:28:00,11.4,10.0,30.12,NW,306,2.0,7.0,92,0.00,,,0.00,weatherlink.com 1.10,2013-03-04 12:28:00,
2013-03-04 07:43:00,11.6,10.0,30.14,North,360,1.0,6.0,92,0.00,,,0.00,weatherlink.com 1.10,2013-03-04 12:43:00,
2013-03-04 07:58:00,11.7,10.0,30.14,WNW,282,2.0,5.0,92,0.00,,,0.00,weatherlink.com 1.10,2013-03-04 12:58:00,
2013-03-04 08:13:00,11.9,10.0,30.15,NW,321,3.0,7.0,92,0.00,,,0.00,weatherlink.com 1.10,2013-03-04 13:13:00,
2013-03-04 08:28:00,12.1,10.0,30.15,NW,316,3.0,6.0,92,0.00,,,0.00,weatherlink.com 1.10,2013-03-04 13:28:00,
2013-03-04 08:43:00,12.6,11.0,30.15,WSW,250,3.0,5.0,92,0.00,,,0.00,weatherlink.com 1.10,2013-03-04 13:43:00,
2013-03-04 08:58:00,13.5,12.0,30.16,NW,312,2.0,5.0,92,0.00,,,0.00,weatherlink.com 1.10,2013-03-04 13:58:00,
2013-03-04 09:13:00,14.5,13.0,30.17,NNW,328,1.0,6.0,93,0.00,,,0.00,weatherlink.com 1.10,2013-03-04 14:13:00,
2013-03-04 09:28:00,15.4,14.0,30.17,NW,323,1.0,7.0,93,0.00,,,0.00,weatherlink.com 1.10,2013-03-04 14:28:00,
2013-03-04 09:43:00,16.2,15.0,30.18,NW,313,2.0,4.0,93,0.00,,,0.00,weatherlink.com 1.10,2013-03-04 14:43:00,
2013-03-04 09:58:00,17.1,16.0,30.20,West,269,2.0,5.0,93,0.00,,,0.00,weatherlink.com 1.10,2013-03-04 14:58:00,
2013-03-04 10:14:00,17.8,16.0,30.20,SW,232,0.0,4.0,94,0.00,,,0.00,weatherlink.com 1.10,2013-03-04 15:14:00,
2013-03-04 10:29:00,18.5,17.0,30.20,NW,308,1.0,4.0,94,0.00,,,0.00,weatherlink.com 1.10,2013-03-04 15:29:00,
2013-03-04 10:44:00,19.0,18.0,30.21,WSW,257,0.0,5.0,94,0.00,,,0.00,weatherlink.com 1.10,2013-03-04 15:44:00,
2013-03-04 10:59:00,19.5,18.0,30.21,WSW,238,1.0,6.0,94,0.00,,,0.00,weatherlink.com 1.10,2013-03-04 15:59:00,
2013-03-04 11:14:00,20.7,20.0,30.22,WNW,291,0.0,4.0,95,0.00,,,0.00,weatherlink.com 1.10,2013-03-04 16:14:00,
2013-03-04 11:29:00,21.3,20.0,30.22,WSW,237,0.0,3.0,94,0.00,,,0.00,weatherlink.com 1.10,2013-03-04 16:29:00,
2013-03-04 11:44:00,22.5,21.0,30.23,NW,317,0.0,3.0,95,0.00,,,0.00,weatherlink.com 1.10,2013-03-04 16:44:00,
2013-03-04 11:59:00,22.8,22.0,30.23,WNW,282,0.0,3.0,95,0.00,,,0.00,weatherlink.com 1.10,2013-03-04 16:59:00,
2013-03-04 12:14:00,24.1,23.0,30.23,NW,305,1.0,2.0,95,0.00,,,0.00,weatherlink.com 1.10,2013-03-04 17:14:00,
2013-03-04 12:29:00,24.6,23.0,30.22,WSW,239,0.0,3.0,95,0.00,,,0.00,weatherlink.com 1.10,2013-03-04 17:29:00,
2013-03-04 12:44:00,24.8,23.0,30.22,West,277,0.0,3.0,94,0.00,,,0.00,weatherlink.com 1.10,2013-03-04 17:44:00,
2013-03-04 12:59:00,25.4,24.0,30.22,SW,218,0.0,1.0,94,0.00,,,0.00,weatherlink.com 1.10,2013-03-04 17:59:00,
2013-03-04 13:14:00,26.2,25.0,30.20,NW,313,4.0,10.0,95,0.00,,,0.00,weatherlink.com 1.10,2013-03-04 18:14:00,
2013-03-04 13:29:00,26.1,25.0,30.20,West,279,1.0,9.0,94,0.00,,,0.00,weatherlink.com 1.10,2013-03-04 18:29:00,
2013-03-04 13:44:00,27.3,26.0,30.20,WSW,255,1.0,7.0,94,0.00,,,0.00,weatherlink.com 1.10,2013-03-04 18:44:00,
2013-03-04 13:59:00,28.2,26.0,30.20,NW,315,4.0,8.0,92,0.01,,,0.01,weatherlink.com 1.10,2013-03-04 18:59:00,
2013-03-04 14:14:00,29.0,27.0,30.20,West,269,3.0,6.0,93,0.03,,,0.03,weatherlink.com 1.10,2013-03-04 19:14:00,
2013-03-04 14:29:00,29.0,27.0,30.19,North,355,1.0,10.0,92,0.04,,,0.04,weatherlink.com 1.10,2013-03-04 19:29:00,
2013-03-04 14:44:00,29.6,28.0,30.19,WSW,245,6.0,9.0,92,0.05,,,0.05,weatherlink.com 1.10,2013-03-04 19:44:00,
2013-03-04 14:59:00,29.1,27.0,30.18,North,355,0.0,7.0,91,0.04,,,0.05,weatherlink.com 1.10,2013-03-04 19:59:00,
2013-03-04 15:29:00,30.8,29.0,30.19,NW,326,0.0,6.0,91,0.03,,,0.07,weatherlink.com 1.10,2013-03-04 20:29:00,
2013-03-04 15:44:00,29.7,27.0,30.19,NW,306,2.0,6.0,91,0.02,,,0.07,weatherlink.com 1.10,2013-03-04 20:44:00,
2013-03-04 15:59:00,30.5,28.0,30.18,West,263,3.0,6.0,90,0.02,,,0.07,weatherlink.com 1.10,2013-03-04 20:59:00,
2013-03-04 16:14:00,30.1,28.0,30.18,WNW,297,0.0,7.0,91,0.02,,,0.08,weatherlink.com 1.10,2013-03-04 21:14:00,
2013-03-04 16:29:00,31.0,29.0,30.18,NW,311,1.0,6.0,91,0.01,,,0.08,weatherlink.com 1.10,2013-03-04 21:29:00,
2013-03-04 16:44:00,31.4,26.0,30.18,ENE,62,0.0,7.0,80,0.01,,,0.08,weatherlink.com 1.10,2013-03-04 21:44:00,
2013-03-04 16:59:00,31.0,27.0,30.18,NE,51,0.0,2.0,86,0.01,,,0.08,weatherlink.com 1.10,2013-03-04 21:59:00,
2013-03-04 17:14:00,30.6,28.0,30.19,SE,138,0.0,3.0,88,0.00,,,0.08,weatherlink.com 1.10,2013-03-04 22:14:00,
2013-03-04 17:29:00,29.3,27.0,30.19,SSE,147,0.0,2.0,90,0.00,,,0.08,weatherlink.com 1.10,2013-03-04 22:29:00,
2013-03-04 17:44:00,28.5,26.0,30.19,SSE,147,1.0,3.0,90,0.00,,,0.08,weatherlink.com 1.10,2013-03-04 22:44:00,
2013-03-04 17:59:00,27.8,24.0,30.19,SSE,147,0.0,2.0,87,0.00,,,0.08,weatherlink.com 1.10,2013-03-04 22:59:00,
2013-03-04 18:14:00,28.5,23.0,30.20,NE,47,0.0,2.0,80,0.00,,,0.08,weatherlink.com 1.10,2013-03-04 23:14:00,
2013-03-04 18:29:00,28.7,22.0,30.19,ENE,60,0.0,2.0,77,0.00,,,0.08,weatherlink.com 1.10,2013-03-04 23:29:00,
2013-03-04 18:44:00,28.1,22.0,30.20,NE,52,0.0,3.0,77,0.00,,,0.08,weatherlink.com 1.10,2013-03-04 23:44:00,
2013-03-04 18:59:00,27.6,21.0,30.20,NE,52,0.0,1.0,76,0.00,,,0.08,weatherlink.com 1.10,2013-03-04 23:59:00,
2013-03-04 19:14:00,28.5,21.0,30.20,NE,52,0.0,3.0,73,0.00,,,0.08,weatherlink.com 1.10,2013-03-05 00:14:00,
2013-03-04 19:29:00,28.8,22.0,30.20,NE,34,3.0,6.0,76,0.00,,,0.08,weatherlink.com 1.10,2013-03-05 00:29:00,
2013-03-04 19:44:00,29.6,22.0,30.19,NNE,33,2.0,3.0,74,0.00,,,0.08,weatherlink.com 1.10,2013-03-05 00:44:00,
2013-03-04 19:59:00,30.2,23.0,30.19,NNE,17,4.0,5.0,74,0.00,,,0.08,weatherlink.com 1.10,2013-03-05 00:59:00,
2013-03-04 20:14:00,30.0,25.0,30.18,North,5,2.0,5.0,83,0.00,,,0.08,weatherlink.com 1.10,2013-03-05 01:14:00,
2013-03-04 20:29:00,29.7,26.0,30.18,NNE,17,0.0,2.0,85,0.00,,,0.08,weatherlink.com 1.10,2013-03-05 01:29:00,
2013-03-04 20:44:00,31.5,28.0,30.18,NNE,20,4.0,5.0,85,0.00,,,0.08,weatherlink.com 1.10,2013-03-05 01:44:00,
2013-03-04 20:59:00,30.9,27.0,30.19,North,5,0.0,1.0,86,0.00,,,0.08,weatherlink.com 1.10,2013-03-05 01:59:00,
2013-03-04 21:15:00,30.8,27.0,30.18,North,5,0.0,2.0,87,0.00,,,0.08,weatherlink.com 1.10,2013-03-05 02:15:00,
2013-03-04 21:30:00,30.6,28.0,30.18,North,5,1.0,4.0,89,0.00,,,0.08,weatherlink.com 1.10,2013-03-05 02:30:00,
2013-03-04 21:45:00,31.3,29.0,30.18,NW,305,1.0,3.0,91,0.00,,,0.08,weatherlink.com 1.10,2013-03-05 02:45:00,
2013-03-04 22:00:00,32.2,30.0,30.17,NW,304,1.0,2.0,91,0.00,,,0.08,weatherlink.com 1.10,2013-03-05 03:00:00,
2013-03-04 22:15:00,32.9,30.0,30.17,NW,304,0.0,2.0,88,0.00,,,0.08,weatherlink.com 1.10,2013-03-05 03:15:00,
2013-03-04 22:30:00,32.7,29.0,30.17,NW,304,1.0,2.0,85,0.00,,,0.08,weatherlink.com 1.10,2013-03-05 03:30:00,
2013-03-04 22:45:00,32.4,28.0,30.18,ENE,66,3.0,4.0,82,0.00,,,0.08,weatherlink.com 1.10,2013-03-05 03:45:00,
2013-03-04 23:00:00,32.3,26.0,30.17,ENE,64,2.0,4.0,78,0.00,,,0.08,weatherlink.com 1.10,2013-03-05 04:00:00,
2013-03-04 23:15:00,32.1,25.0,30.16,NE,54,2.0,4.0,75,0.00,,,0.08,weatherlink.com 1.10,2013-03-05 04:15:00,
2013-03-04 23:30:00,32.4,25.0,30.16,ENE,57,3.0,4.0,73,0.00,,,0.08,weatherlink.com 1.10,2013-03-05 04:30:00,
2013-03-04 23:45:00,32.7,24.0,30.16,ENE,65,4.0,5.0,69,0.00,,,0.08,weatherlink.com 1.10,2013-03-05 04:45:00,